Время (UTC), дата Ветер
(°,м/с) 
Видим.   Явления Облачность Т
(°С)
Тd
(°С)
f(%) Тe
(°С)
Pmin
(гПа)
dP
(гПа)
Po
(мм)
O2
(г/м3)
Тmin Tmax R s Состояние
почвы
00 01.12.17 090 (В) 5000 м  в посл. час туман{дождь}  6/4 100 м средняя 
[St|Ac trans]
+2.4 +2 97 1028.7  0.6  764  305           
03 01.12.17 100 (В) 8000 м  дымка  9/6 210 м средняя 
[St|Ac trans]
+2.7 +2.2 96 1028.2  -0.5  764  305  +1.8    0.0     
06 01.12.17 110 (В) 8-10{10}  10 км    9/6 210 м средняя 
[St|Ac trans]
+3.6 +2.6 93 1028.7  0.4  764  304           
09 01.12.17 120 (ЮВ) 9-13{12}  10 км    9/5 360 м средняя 
[St|Ac trans]
+4.5 +2.5 87 +1  1027.8  -0.7  764  302           
12 01.12.17 120 (ЮВ) 7-10{13}  10 км    9/5 360 м средняя 
[St|Ac trans]
+4.6 +2.4 86 +2  1027.4  -0.4  764  302           
15 01.12.17 100 (В) 7-10{11}  8000 м    10/6 330 м средняя 
[Sc|Ac und]
+4 +2.6 91 +1  1027.7  0.2  764  303    +4.8       
18 01.12.17 090 (В) 7{11}  8000 м  дымка  10/6 360 м средняя 
[Sc|Ac und]
+3.5 +2.5 93 1028.1  0.3  764  304           
21 01.12.17 100 (В) 6{10}  8000 м    9/6 300 м средняя 
[Sc|Ac trans]
+3.4 +2.4 93 +1  1028  -0.1  764  304           
00 02.12.17 100 (В) 6{10}  8000 м    10/6 300 м средняя 
[Sc|Ac und]
+3 +2 93 1028  764  304           
03 02.12.17 110 (В) 8000 м    10/6 300 м средняя 
[Sc|Ac und]
+3.4 +2.4 93 +1  1027.8  -0.2  764  304  +2.8         
06 02.12.17 110 (В) 6{10}  6000 м  дымка  10/6 300 м средняя 
[Sc|Ac und]
+4 +2.2 88 +1  1028.4  0.6  764  303           
09 02.12.17 120 (ЮВ) 8-10{12}  10 км    10/6 330 м средняя 
[Sc|Ac und]
+4.7 +2.3 84 +1  1028.3  764  302           
12 02.12.17 110 (В) 6{12}  6000 м  дым  9/6 360 м средняя 
[Sc|Ac trans]
+5 +2.4 83 +2  1027.6  -0.6  764  302           
15 02.12.17 100 (В) 4000 м    8/5 300 м средняя 
[Sc|Ac trans]
+3.6 +2 89 +1  1027.9  0.1  764  304    +5.1       
18 02.12.17 100 (В) 10 км    5/3 300 м средняя 
[Sc|Ac trans]
+4 +2.5 90 +2  1027.5  -0.4  764  303           
21 02.12.17 100 (В) 6000 м  дым  5/0 средняя 
[Ac trans]
+4 +2.5 90 +1  1027.6  764  303           
00 03.12.17 090 (В) 8000 м  дым  5/0 средняя 
[Ac trans]
+2.8 +1.8 93 1027.4  -0.2  764  304           
03 03.12.17 090 (В) 8000 м  дымка  5/3 100 м средняя 
[St|Ac trans]
+2 +1.2 94 -1  1026.9  -0.5  763  305  +2.1         
06 03.12.17 100 (В) 10 км    8/4 300 м средняя, верхняя 
[St|Ac trans|Ci fib]
+3.3 +2.4 94 +1  1027.3  0.4  763  304           
09 03.12.17 100 (В) 10 км    8/4 200 м средняя, верхняя 
[St|Ac trans|Ci fib]
+6.5 +4 84 +4  1026  -1.1  763  300           
12 03.12.17 090 (В) 10 км    8/0 средняя, верхняя 
[Ac trans|Ci]
+7.4 +4.5 82 +6  1025.1  -0.8  762  298           
15 03.12.17 080 (В) 8000 м    9/0 средняя, верхняя 
[Ac trans|Ci fib]
+5.8 +4.2 89 +4  1025  -0.2  762  300    +7.6       
18 03.12.17 090 (В) 8000 м    8/0 средняя, верхняя 
[Ac trans|Ci fib]
+4.9 +3.6 91 +2  1023.5  -1.4  761  301           
21 03.12.17 090 (В) 8000 м    9/0 средняя, верхняя 
[Ac trans|Ci fib]
+4.5 +3.3 92 +2  1022.4  -1  760  301           
00 04.12.17 090 (В) 7000 м  дымка  9/1 600 м кучево-дожд., средняя 
[Cb calv|Ac trans]
+3.8 +2.8 93 +2  1021.5  -0.9  759  301           
03 04.12.17 110 (В) 6000 м  дымка  9/4 100 м кучево-дожд., средняя 
[Cb calv|Ac trans]
+3.6 +2.8 94 +2  1020.7  -0.8  759  301  +3.6         
06 04.12.17 080 (В) 6000 м  дымка  9/4 1000 м кучево-дожд., средняя 
[Cb calv|Ac trans]
+3.8 +3.1 95 +3  1019.4  -1.2  758  301  +2.7         
09 04.12.17 130 (ЮВ) 10 км    9/3 1000 м средняя, верхняя 
[Sc|Ac trans|Ci fib]
+6.9 +3.9 81 +7  1018  -1.2  757  297           
12 04.12.17 110 (В) 7000 м  слаб. ливневой дождь  9/4 1000 м кучево-дожд., средняя 
[Cb calv|Ac trans]
+8.2 +5.4 82 +8  1016.3  -1.4  755  295           
15 04.12.17 100 (В) 6000 м  слаб. ливневой дождь  10/6 200 м кучево-дожд., средняя 
[Cb calv|Ac und]
+7.5 +5.9 90 +7  1015.1  -1.1  755  295    +9  0.0     
18 04.12.17 300 (СЗ) 2200 м  слаб. ливневой дождь  10/8 120 м кучево-дожд., средняя 
[Cb calv|Ac und]
+7.5 +6.5 93 +8  1013.6  -1.3  753  294           
21 04.12.17 170 (Ю) 3200 м  слаб. ливневой дождь{туман}  10/8 300 м кучево-дожд., средняя 
[Cb calv|Ac und]
+7.7 +6.9 95 +9  1013.4  -0.2  753  294           
00 05.12.17 300 (СЗ) 7000 м  слаб. ливневой дождь{туман}  10/6 100 м кучево-дожд., средняя 
[Cb calv|Ac und]
+7 +6.2 95 +7  1012.4  -1  752  295           
03 05.12.17 360 (С) 5000 м  слаб. ливневой дождь  10/8 180 м кучево-дожд., средняя 
[Cb calv|Ac und]
+4.5 +3.7 95 +2  1012.6  753  298  +4.6    10     
06 05.12.17 330 (СЗ) 10 км  слаб. ливневой дождь  10/6 840 м кучево-дожд., средняя 
[Cb calv|Ac und]
+2.9 +1.2 89 +1  1013.9  1.2  753  300  +2.9         
09 05.12.17 320 (СЗ) 10 км  {ливн. осадки}  8/3 1000 м средняя, верхняя 
[Sc|Ac trans|Ci fib]
+2.9 +0.3 83 +2  1014.7  0.7  754  301           
12 05.12.17 300 (СЗ) 10 км  {ливн. осадки}  8/4 600 м средняя, верхняя 
[Sc|Ac trans|Ci fib]
+3.4 -0.8 74 +1  1014.8  0.1  754  300           
15 05.12.17 300 (СЗ) 8000 м    9/5 1000 м средняя 
[Sc|Ac trans]
+2.2 -2.8 69 +2  1015.6  0.7  755  302    +4.6     
18 05.12.17 310 (СЗ) 8000 м    9/5 1230 м средняя 
[Sc|Ac trans]
+1.5 -1.9 78 +1  1016.5  0.8  755  303           
21 05.12.17 300 (СЗ) 8000 м    8/4 1500 м средняя 
[Sc|Ac trans]
+1.2 -2.3 77 1016.5  755  303           
00 06.12.17 300 (СЗ) 7000 м  дымка  8/0 средняя, верхняя 
[Ac trans|Ci fib]
-0.2 -3.1 81 -1  1016.2  -0.3  755  305           
03 06.12.17 280 (З) 7000 м  дымка  6/3 1500 м средняя, верхняя 
[Sc|Ac trans|Ci fib]
-1.4 -3.5 86 -1  1016.2  755  306  -1.5         
06 06.12.17 090 (В) 3500 м  дымка{ливн. осадки}  9/5 360 м средняя 
[St|Ac trans]
-0.9 -1.9 93 1016.5  0.3  755  306  -1.6         
09 06.12.17 250 (З) 4900 м  дымка  8/5 300 м средняя 
[Sc|Ac trans]
+1 -0.9 87 -2  1015.8  -0.8  755  303           
12 06.12.17 250 (З) 7000 м  дымка  9/6 450 м средняя 
[Sc|Ac trans]
+0.7 -1.8 83 -2  1015.3  -0.4  754  303           
15 06.12.17 240 (ЮЗ) 7000 м  дымка  6/4 600 м кучево-дожд., средняя 
[Cb calv|Ac trans]
+0.1 -3.4 77 -2  1015.2  754  304    +2.3  0.0     
18 06.12.17 220 (ЮЗ) 4{10}  7000 м  дымка  8/5 600 м средняя 
[Sc|Ac trans]
-0.8 -2.6 88 -3  1014.5  -0.8  754  305           
21 06.12.17 220 (ЮЗ) 2400 м  слаб. ливневой снег  9/5 270 м кучево-дожд., средняя 
[Cb calv|Ac trans]
-0.3 -1.5 92 -4  1012.2  -2.1  752  304           
00 07.12.17 240 (ЮЗ) 5{11}  7000 м  слаб. ливневой снег  10/8 210 м кучево-дожд., средняя 
[Cb calv|Ac und]
+0.4 -0.2 96 -3  1010.4  -1.7  751  302           
03 07.12.17 270 (З) 6000 м  дымка{ливн. осадки}  9/6 1500 м кучево-дожд., средняя 
[Cb calv|Ac trans]
+1 -0.2 92 -2  1010.5  751  301  -0.9       
06 07.12.17 280 (З) 7000 м  дымка{ливн. осадки}  9/5 200 м средняя 
[Sc|Ac trans]
+1.2 -0.6 88 -1  1011.4  0.9  752  302           
09 07.12.17 300 (СЗ) 10 км    8/4 1000 м средняя 
[Sc|Ac trans]
+1.4 -2.9 73 -1  1011.4  752  302           
12 07.12.17 300 (СЗ) 10 км    9/5 1170 м кучево-дожд., средняя 
[Cb calv|Ac trans]
+1.3 -4.8 64 -1  1012  0.6  752  302           
15 07.12.17 270 (З) 8000 м    6/4 1000 м кучево-дожд., средняя 
[Cb calv|Ac trans]
+0 -4.6 71 -2  1013.7  1.6  753  304    +1.9       
18 07.12.17 270 (З) 8000 м    8/3 1500 м средняя 
[Sc|Ac trans]
+0 -3.7 76 -2  1014.7  0.9  754  304           
21 07.12.17 280 (З) 8000 м    9/5 1500 м кучево-дожд., средняя 
[Cb calv|Ac trans]
+0.2 -3.9 74 -2  1015  0.3  754  304           
00 08.12.17 300 (СЗ) 8000 м    9/4 1500 м средняя 
[Sc|Ac trans]
-0.1 -3.7 77 -1  1015.7  0.6  755  305           
03 08.12.17 320 (СЗ) 8000 м    3/0 средняя 
[Ac trans]
-2.1 -4.3 85 -3  1016.8  755  307  -2.1         
06 08.12.17 320 (СЗ) 6000 м  дымка  4/0 средняя 
[Ac trans]
-1 -2.4 90 1018.5  1.7  757  306  -3.8         
09 08.12.17 310 (СЗ) 10 км    8/0 средняя 
[Ac trans]
+0.9 -4.6 67 1019.3  0.7  757  305           
12 08.12.17 180 (Ю) 10 км    9/0 средняя 
[Ac trans]
+1.4 -3.9 68 +2  1019.2  757  304           
15 08.12.17 100 (В) 8000 м    5/0 средняя 
[Ac trans]
-0.8 -3.8 80 1020.2  0.8  758  307    +1.6       
18 08.12.17 130 (ЮВ) 5000 м  дымка  9/6 240 м средняя 
[Sc|Ac trans]
+0.3 -1.1 90 1020.7  0.6  758  305           
21 08.12.17 140 (ЮВ) 3100 м  слаб. дождь  10/8 120 м средняя 
[Sc|Ac und]
+0.4 -0.6 93 1021.1  0.3  759  305           
00 09.12.17 120 (ЮВ) 3400 м  дымка{дождь}  10/8 150 м средняя 
[Sc|Ac und]
+0.3 -0.6 94 1021.1  0.1  759  305           
03 09.12.17 120 (ЮВ) 0100 м  туман  ?/?  
+0.6 +0 96 -1  1021  -0.2  759  305  -1.3    0.0     
06 09.12.17 110 (В) 0200 м  туман  ?/?  
+1 +0.6 97 -1  1020.9  759  304           
09 09.12.17 130 (ЮВ) 4700 м  дымка{туман}  9/5 240 м средняя 
[St|Ac trans]
+2.6 +2.1 96 +1  1019.9  -0.9  758  302           
12 09.12.17 130 (ЮВ) 7000 м  дымка{туман}  8/0 средняя 
[Sc|Ac trans]
+5.8 +3.9 88 +5  1019.1  -0.7  757  298           
15 09.12.17 100 (В) 5000 м  дымка  9/4 1500 м средняя 
[Sc|Ac trans]
+4.3 +3.1 92 +4  1018.6  -0.5  757  300    +5.8       
18 09.12.17 190 (Ю) 8000 м    9/4 1500 м средняя 
[Sc|Ac trans]
+7.1 +4.8 85 +5  1018.7  0.1  757  297           
21 09.12.17 180 (Ю) 8000 м    6/0 средняя 
[Ac trans]
+6.3 +3.6 83 +5  1019  0.3  757  298           
00 10.12.17 160 (Ю) 8000 м    9/3 1500 м средняя 
[Sc|Ac trans]
+6.6 +3.2 79 +6  1018.8  -0.2  757  297           
03 10.12.17 190 (Ю) 8000 м    8/0 средняя 
[Ac trans]
+5.9 +1.8 75 +5  1018.1  -0.6  757  298  +4.2         
06 10.12.17 110 (В) 10 км    5/0 средняя 
[Ac trans]
+4.9 +0.1 71 +6  1018.1  757  299  +2.6         
09 10.12.17 130 (ЮВ) 10 км    3/0 средняя, верхняя 
[Ac trans|Ci fib]
+9 +1.4 59 +8  1016.6  -1.3  756  295           
12 10.12.17 130 (ЮВ) 10 км    3/0 средняя 
[Ac trans]
+11.2 +0.9 49 +10  1014.3  -2.2  754  292           
15 10.12.17 130 (ЮВ) 8000 м    5/0 средняя, верхняя 
[Ac trans|Ci fib]
+6.3 +2.5 77 +5  1013.3  -1  753  296    +11.9       
18 10.12.17 130 (ЮВ) 8000 м    1/0 средняя 
[Ac trans]
+4.9 +1.5 79 +3  1012.4  -1  752  298           
21 10.12.17 160 (Ю) 6000 м  слаб. ливневой дождь  9/5 1200 м кучево-дожд., средняя 
[Cb calv|Ac trans]
+4.3 +0.9 79 +3  1012.5  752  298           
00 11.12.17 230 (ЮЗ) 6{10}  8000 м  слаб. ливневой дождь  10/4 1110 м кучево-дожд., средняя 
[Cb calv|Ac und]
+4.9 +3.5 91 +2  1014.6  2.2  754  298           
03 11.12.17 250 (З) 7-10{16}  8000 м  {ливн. осадки}  9/3 660 м средняя 
[Sc|Ac trans]
+2.6 -0.5 80 -1  1018.5  3.7  757  302  +2.4    0.0     
06 11.12.17 250 (З) 6{16}  10 км    6/4 300 м средняя 
[Sc|Ac trans]
+2.2 -1.2 78 -1  1021.6  759  304  +2         
09 11.12.17 250 (З) 6{11}  10 км    8/0 средняя, верхняя 
[Ac trans|Ci fib]
+4.7 -2.3 60 +2  1023.1  1.6  760  301           
12 11.12.17 220 (ЮЗ) 4{11}  10 км    8/3 1000 м средняя, верхняя 
[Sc|Ac trans|Ci fib]
+6.1 +0.1 65 +5  1023.4  0.3  761  300           
15 11.12.17 190 (Ю) 8000 м    8/0 средняя, верхняя 
[Ac trans|Ci fib]
+4.9 +1.2 77 +3  1024.6  761  301    +6.5       
18 11.12.17 190 (Ю) 8000 м    8/3 1260 м средняя 
[Sc|Ac trans]
+5.1 +1.3 76 +3  1024.2  -0.4  761  301           
21 11.12.17 190 (Ю) 8000 м    8/3 1000 м средняя 
[Sc|Ac trans]
+5 +1.6 79 +3  1023.6  -0.5  761  301           
00 12.12.17 200 (Ю) 8000 м  слаб. ливневой дождь  9/6 1140 м кучево-дожд., средняя 
[Cb calv|Ac trans]
+5.5 +1.7 76 +3  1023  -0.5  760  300           
03 12.12.17 190 (Ю) 8000 м  {ливн. осадки}  9/5 800 м кучево-дожд., средняя 
[Cb calv|Ac trans]
+5.5 +2 78 +4  1022.8  -0.2  760  300  +4.7       
06 12.12.17 200 (Ю) 10 км  {ливн. осадки}  9/5 1000 м кучево-дожд., средняя 
[Cb calv|Ac trans]
+5.9 +2.3 78 +4  1022.4  -0.3  760  299           
09 12.12.17 200 (Ю) 10 км    10/6 300 м средняя 
[Sc|Ac trans]
+8.5 +5 79 +8  1021.6  -0.6  759  296           
12 12.12.17 210 (ЮЗ) 7-10{10}  10 км    9/5 1500 м средняя 
[Sc|Ac trans]
+11.1 +6.8 75 +9  1020.3  -1.1  758  293           
15 12.12.17 200 (Ю) 4{10}  8000 м    8/4 1000 м средняя 
[Sc|Ac trans]
+9.2 +6.5 83 +8  1021  0.5  759  295    +11.3       
18 12.12.17 190 (Ю) 3{10}  8000 м    9/5 870 м средняя 
[Sc|Ac trans]
+8.6 +5.7 82 +8  1020.9  759  296           
21 12.12.17 220 (ЮЗ) 8000 м    5/1 600 м средняя, верхняя 
[Sc|Ac trans|Ci fib]
+7.4 +4.4 81 +6  1020.8  -0.1  759  297           
00 13.12.17 240 (ЮЗ) 8000 м    3/0 средняя 
[Ac trans]
+5.8 +4 88 +5  1020.5  -0.3  758  299           
03 13.12.17 230 (ЮЗ) 8000 м    1/1 600 м 
[Sc]
+4.8 +3.1 89 +6  1020.4  -0.1  758  300  +4.8         
06 13.12.17 210 (ЮЗ) 10 км    8/4 360 м средняя, верхняя 
[St|Ac trans|Ci fib]
+5.6 +3.5 86 +5  1020.9  0.5  759  299  +3.3         
09 13.12.17 220 (ЮЗ) 10 км    5/0 средняя, верхняя 
[Ac trans|Ci fib]
+9.8 +3.9 67 +9  1020.2  -0.5  758  294           
12 13.12.17 220 (ЮЗ) 10 км    6/3 600 м средняя, верхняя 
[Sc|Ac trans|Ci fib]
+12.2 +6.1 66 +12  1019  -1.1  758  291           
15 13.12.17 тихо ()   8000 м    8/0 средняя, верхняя 
[Ac trans|Ci fib]
+9 +4.5 73 +9  1019.1  758  295    +12.5       
18 13.12.17 тихо ()   8000 м    4/0 средняя 
[Ac trans]
+7.9 +2.3 68 +8  1018.7  -0.3  757  296           
21 13.12.17 110 (В) 8000 м    3/0 средняя 
[Ac trans]
+4 +1.1 81 +4  1018.3  -0.6  757  300           
00 14.12.17 070 (В) 8000 м  дымка  3/0 средняя 
[Ac trans]
+1.1 -0.2 91 1018.2  -0.3  757  304           
03 14.12.17 100 (В) 4500 м  дымка  4/0 средняя 
[Ac trans]
-0.4 -1.3 94 -3  1017.7  -0.4  756  305  -0.4         
06 14.12.17 100 (В) 3000 м  дымка{туман}  9/3 200 м средняя 
[St|Ac trans]
+0.1 -0.5 96 -3  1017.6  -0.1  756  305  -0.7         
09 14.12.17 100 (В) 6000 м  дымка  9/0 средняя 
[Ac trans]
+3.1 +1.7 91 +1  1016.9  -0.5  756  301           
12 14.12.17 110 (В) 10 км    8/0 средняя 
[Ac trans]
+6 +2.5 78 +4  1016  -0.8  755  297           
15 14.12.17 100 (В) 7000 м  дымка  6/0 средняя 
[Ac trans]
+4.4 +2.9 90 +3  1016.4  0.4  755  299    +6.1       
18 14.12.17 110 (В) 6000 м  дымка  6/0 средняя 
[Ac trans]
+3.7 +2.6 92 +2  1016.2  -0.3  755  300           
21 14.12.17 110 (В) 7000 м  дымка  8/3 1000 м средняя 
[Sc|Ac trans]
+3.8 +2.7 93 +2  1015.8  -0.5  755  300           
00 15.12.17 100 (В) 7000 м  дымка  8/3 1000 м средняя, верхняя 
[Sc|Ac trans|Ci fib]
+3.6 +2.4 92 +1  1016  0.1  755  300           
03 15.12.17 110 (В) 8000 м  дымка  9/3 1500 м средняя, верхняя 
[Sc|Ac trans|Ci fib]
+3.3 +2.3 93 +1  1016.4  0.3  755  300  +2.8         
06 15.12.17 110 (В) 1400 м  в посл. час туман  9/3 100 м средняя, верхняя 
[St|Ac trans|Ci fib]
+3.3 +2.7 96 +1  1016.7  0.4  756  300  +2.3         
09 15.12.17 130 (ЮВ) 10 км  {туман}  9/4 1000 м средняя 
[Sc|Ac trans]
+5.5 +2.6 82 +4  1016.5  -0.1  755  298           
12 15.12.17 110 (В) 4400 м  слаб. ливневой дождь{туман}  10/5 1170 м кучево-дожд., средняя 
[Cb calv|Ac und]
+5.9 +3.9 87 +6  1016.8  0.2  756  297           
15 15.12.17 110 (В) 2000 м  слаб. ливневой дождь  10/5 270 м кучево-дожд., средняя 
[Cb calv|Ac und]
+5.5 +4.5 93 +5  1017.8  756  298    +5.9     
18 15.12.17 210 (ЮЗ) 2300 м  дымка{ливн. осадки}  10/5 120 м средняя 
[Sc|Ac und]
+5.9 +5 94 +7  1018.6  0.7  757  298           
21 15.12.17 100 (В) 0100 м  туман  ?/?  
+5.6 +4.9 95 +6  1019.2  0.6  758  298           
00 16.12.17 100 (В) 0100 м  туман  ?/?  
+5.7 +5.1 96 +5  1020  0.8  758  298           
03 16.12.17 100 (В) 0200 м  туман  ?/?  
+5.8 +5.8 100 +4  1019.5  -0.5  758  298  +5.4    0.0     
06 16.12.17 100 (В) 3700 м  дымка{туман}  8/4 1000 м средняя 
[Sc|Ac trans]
+5 +5 100 +4  1020  0.5  758  299  +4.8         
09 16.12.17 100 (В) 10 км    8/4 600 м средняя 
[Sc|Ac trans]
+7.2 +5.2 87 +6  1019.1  -0.9  757  297           
12 16.12.17 090 (В) 10 км    6/0 средняя 
[Ac trans]
+8.8 +6.4 85 +7  1018.5  -0.5  757  294           
15 16.12.17 090 (В) 8-10{10}  4000 м  дымка  8/4 100 м средняя 
[Sc|Ac trans]
+5.8 +4.7 93 +3  1018.8  0.1  757  298    +9.5       
18 16.12.17 100 (В) 8-10{10}  4400 м  дымка  8/5 120 м средняя 
[Sc|Ac trans]
+4.9 +4.1 95 +2  1019.5  0.8  758  299           
21 16.12.17 110 (В) 7{11}  4700 м  дымка  8/5 210 м средняя 
[St|Ac trans]
+4.9 +4.1 95 +2  1019.1  -0.4  757  299           
00 17.12.17 120 (ЮВ) 5{11}  4100 м  дымка  9/5 180 м средняя 
[St|Ac trans]
+4 +3 93 +2  1019.4  0.1  758  300           
03 17.12.17 110 (В) 6000 м  дымка  9/5 240 м средняя 
[St|Ac trans]
+3.5 +2.6 94 +2  1019.1  -0.3  757  301  +3.4         
06 17.12.17 100 (В) 5000 м  дымка  9/5 270 м средняя 
[St|Ac trans]
+4.1 +3.1 93 +2  1019.7  0.5  758  300  +3.4         
09 17.12.17 110 (В) 7000 м  дымка  8/4 300 м средняя, верхняя 
[St|Ac trans|Ci fib]
+6.5 +4.3 86 +4  1019.3  -0.2  758  297           
12 17.12.17 110 (В) 10 км    9/4 300 м средняя 
[Sc|Ac trans]
+8 +5.2 82 +6  1018.5  -0.7  757  296           
15 17.12.17 110 (В) 8000 м    9/4 300 м средняя 
[Sc|Ac trans]
+6.6 +4.6 87 +5  1019.1  0.4  757  297    +8.2       
18 17.12.17 110 (В) 8000 м  слаб. ливневой дождь  9/5 360 м кучево-дожд., средняя 
[Cb calv|Ac trans]
+6.2 +4.1 86 +4  1019.1  757  298           
21 17.12.17 120 (ЮВ) 8000 м  слаб. ливневой дождь  9/5 450 м кучево-дожд., средняя 
[Cb calv|Ac trans]
+5.8 +3.8 87 +4  1018.5  -0.5  757  298           
00 18.12.17 090 (В) 8-10{13}  8000 м  слаб. ливневой дождь  9/5 1500 м кучево-дожд., средняя 
[Cb calv|Ac trans]
+5.7 +4.3 91 +3  1017.2  -1.3  756  298           
03 18.12.17 100 (В) 6{12}  4200 м  слаб. ливневой дождь  9/4 300 м кучево-дожд., средняя 
[Cb calv|Ac trans]
+5.2 +4.2 93 +3  1017.1  756  298  +5.2    0.0     
06 18.12.17 100 (В) 9-11{12}  3600 м  в посл. час ливневой дождь  10/5 100 м кучево-дожд., средняя 
[Cb calv|Ac und]
+5.2 +4.4 95 +2  1016  -1.1  755  298  +5.1         
09 18.12.17 130 (ЮВ) 6{11}  6000 м  в посл. час ливневой дождь  10/5 330 м кучево-дожд., средняя 
[Cb calv|Ac und]
+6.7 +5.3 91 +5  1016.6  0.6  756  296           
12 18.12.17 110 (В) 5{11}  4900 м  в посл. час ливневой дождь  10/4 750 м кучево-дожд., средняя 
[Cb calv|Ac und]
+6.8 +5.7 93 +5  1016.1  -0.5  755  296           
15 18.12.17 140 (ЮВ) 4000 м  слаб. ливневой дождь  10/5 420 м кучево-дожд., средняя 
[Cb calv|Ac und]
+7.2 +6.3 94 +6  1016.8  0.7  756  296    +7.2     
18 18.12.17 200 (Ю) 2400 м  слаб. ливневой дождь  10/6 120 м кучево-дожд., средняя 
[Cb calv|Ac und]
+7.3 +6.5 95 +7  1017.7  0.9  756  296           
21 18.12.17 270 (З) 2200 м  слаб. ливневой дождь  10/6 120 м кучево-дожд., средняя 
[Cb calv|Ac und]
+5.5 +4.7 95 +4  1018.8  0.9  757  298           
00 19.12.17 290 (З) 6000 м  слаб. ливневой дождь  10/6 240 м кучево-дожд., средняя 
[Cb calv|Ac und]
+4.5 +3.5 93 +3  1018.6  -0.2  757  300           
03 19.12.17 280 (З) 3500 м  слаб. ливневой дождь  10/6 180 м кучево-дожд., средняя 
[Cb calv|Ac und]
+4.3 +3.5 95 +5  1018.8  0.1  757  300  +4.2    15     
06 19.12.17 320 (СЗ) 6000 м  слаб. ливневой дождь  10/6 210 м кучево-дожд., средняя 
[Cb calv|Ac und]
+3.8 +2.8 93 +3  1020.5  1.6  758  301  +3.8         
09 19.12.17 тихо ()   10 км  в посл. час ливневой дождь  10/5 300 м кучево-дожд., средняя 
[Cb calv|Ac und]
+3.8 +2.7 93 +4  1021.3  0.8  759  301           
12 19.12.17 260 (З) 10 км  {ливн. осадки}  9/5 570 м средняя 
[Sc|Ac trans]
+4.1 +1 80 +2  1022  0.6  760  301           
15 19.12.17 240 (ЮЗ) 6000 м  дымка  5/3 600 м средняя 
[Sc|Ac trans]
+1.9 +0.2 88 +1  1023.3  1.2  760  304    +4.4  14     
18 19.12.17 300 (СЗ) 7000 м  дымка  8/0 средняя 
[Ac trans]
+2 +0.4 89 +3  1024.1  0.7  761  304           
21 19.12.17 130 (ЮВ) 7000 м  дымка  9/6 360 м средняя 
[Sc|Ac trans]
+1.7 +0.2 90 +2  1024.6  0.5  761  305           
00 20.12.17 080 (В) 6000 м  дымка  9/3 1000 м средняя 
[Sc|Ac trans]
+1.5 +0.7 94 +1  1024.8  0.1  762  305           
03 20.12.17 320 (СЗ) 2700 м  слаб. ливневой дождь  9/6 210 м кучево-дожд., средняя 
[Cb calv|Ac trans]
+1.5 +0.3 92 +1  1025.1  0.3  762  305  +1    0.6     
06 20.12.17 330 (СЗ) 2000 м  слаб. дождь{ливн. осадки}  10/10 150 м 
[Sc]
+0.7 +0 95 -1  1026.1  0.9  762  306  +0.5         
09 20.12.17 330 (СЗ) 5000 м  дымка{дождь}  9/8 330 м средняя 
[Sc|Ac trans]
+2.1 +1.4 95 +1  1026.5  0.5  763  305           
12 20.12.17 300 (СЗ) 6000 м  дымка{дождь}  10/6 270 м средняя 
[Sc|Ac und]
+2.4 +1.4 93 +2  1027.1  0.5  763  305           
15 20.12.17 320 (СЗ) 5000 м  дымка  10/8 270 м средняя 
[Sc|Ac und]
+1.8 +0.3 90 1029  1.8  765  306    +2.7  39     
18 20.12.17 300 (СЗ) 3900 м  дымка  9/5 270 м средняя 
[Sc|Ac trans]
+1.4 +0 90 +1  1030.2  766  307           
21 20.12.17 300 (СЗ) 2800 м  дымка  8/5 180 м средняя 
[Frnb|Ac trans]
+0.4 -0.6 93 -1  1031.1  0.9  766  308           
00 21.12.17 290 (З) 3400 м  дымка  9/6 800 м средняя 
[Sc|Ac trans]
+0.6 -0.7 91 1031.5  0.3  767  308           
03 21.12.17 320 (СЗ) 5000 м  дымка  5/0 средняя 
[Ac trans]
-1.3 -3 88 -1  1032.1  0.5  767  311  -1.4         
06 21.12.17 220 (ЮЗ) 4600 м  дымка  6/4 1000 м средняя 
[Sc|Ac trans]
-1.2 -2.5 91 -1  1033.2  768  311  -2.2         
09 21.12.17 220 (ЮЗ) 10 км    6/4 600 м средняя 
[Sc|Ac trans]
+2.3 -2.3 72 1032.6  -0.4  767  307           
12 21.12.17 280 (З) 10 км    6/3 1000 м средняя 
[Sc|Ac trans]
+1 -6.2 59 -1  1031.5  -1.1  767  308           
15 21.12.17 270 (З) 8000 м    5/0 средняя 
[Ac trans]
-0.8 -6.7 64 -2  1031.3  -0.4  766  310    +2.5       
18 21.12.17 220 (ЮЗ) 7000 м  дымка  4/0 средняя 
[Ac trans]
-3 -6 80 -3  1030  -1.2  765  312           
21 21.12.17 020 (С) 6000 м  дымка  8/1 1500 м средняя 
[Sc|Ac trans]
-2.2 -5 81 -2  1028.6  -1.3  764  311           
00 22.12.17 080 (В) 7000 м  дымка  9/3 1500 м средняя 
[Sc|Ac trans]
-1.6 -5.1 77 -3  1026.5  -1.9  763  310           
03 22.12.17 160 (Ю) 7000 м  дымка  8/3 1500 м средняя 
[Sc|Ac trans]
-2 -6.1 73 -1  1026.1  -0.5  762  310  -3.1         
06 22.12.17 210 (ЮЗ) 10 км    6/3 1000 м средняя 
[Sc|Ac trans]
-1.5 -5.4 75 -3  1026.5  0.5  763  310           
09 22.12.17 220 (ЮЗ) 10 км  {ливн. осадки}  6/3 1000 м кучево-дожд., средняя 
[Cb calv|Ac trans]
+0.4 -2.6 80 -2  1026.1  -0.4  762  307           
12 22.12.17 220 (ЮЗ) 5000 м  слаб. ливневой снег  10/6 270 м кучево-дожд., средняя 
[Cb calv|Ac trans]
+0 -1.5 90 -3  1024.6  -1.4  761  307           
15 22.12.17 220 (ЮЗ) 6000 м  дымка{ливн. осадки}  9/5 180 м средняя 
[Sc|Ac trans]
-0.1 -1.4 91 -3  1023.5  -1  761  307    +1.2  0.0     
18 22.12.17 230 (ЮЗ) 4800 м  {ливн. осадки}  9/5 100 м средняя 
[Sc|Ac trans]
-0.2 -1.2 93 -3  1022.3  -1.1  760  306           
21 22.12.17 210 (ЮЗ) 3600 м  дымка  9/5 120 м средняя 
[St|Ac trans]
-0.5 -1.3 94 -2  1020.9  -1.4  759  306           
00 23.12.17 150 (ЮВ) 2500 м  дымка  10/8 100 м средняя 
[Sc|Ac und]
-1 -1.7 95 -2  1018.6  -2.1  757  306           
03 23.12.17 150 (ЮВ) 3600 м  дымка  9/6 100 м средняя 
[Sc|Ac trans]
-1.6 -2.3 95 -4  1016.2  -2.3  755  306  -1.7         
06 23.12.17 130 (ЮВ) 4400 м  слаб. снег  10/8 1080 м средняя 
[Sc|Ac und]
-1 -1.8 94 1014.6  -1.5  754  305           
09 23.12.17 110 (В) 5000 м  слаб. снег  10/0 средняя 
[Sc|Ac und]
-0.7 -1.7 93 -2  1013.2  -1.3  753  304           
12 23.12.17 100 (В) 4900 м  дымка{снег}  10/5 240 м средняя 
[Sc|Ac und]
+0 -1.3 91 -1  1012.2  -0.9  752  303           
15 23.12.17 110 (В) 3900 м  слаб. ливневой снег  10/6 200 м кучево-дожд., средняя 
[Cb calv|Ac und]
-0.5 -1.6 92 -1  1012.7  0.4  752  304    +0  0.0     
18 23.12.17 360 (С) 4000 м  слаб. снег{ливн. осадки}  10/8 360 м средняя 
[Sc|As op]
-0.2 -1.3 92 -1  1012.7  752  304           
21 23.12.17 330 (СЗ) 3800 м  слаб. снег  10/6 100 м средняя 
[Sc|As op]
-0.4 -1.3 94 -1  1012.7  752  304           
00 24.12.17 260 (З) 3200 м  слаб. снег  10/5 180 м средняя 
[Sc|As op]
-0.2 -1.3 92 -1  1012.4  -0.2  752  303           
03 24.12.17 280 (З) 4800 м  слаб. снег  10/5 200 м средняя 
[Sc|As op]
-0.5 -1.9 90 -2  1011.8  -0.6  752  304  -0.6    0.3     
06 24.12.17 260 (З) 6000 м  дымка{снег}  10/5 630 м средняя 
[Sc|Ac trans]
-0.4 -3 83 -3  1010.8  -1  751  303           
09 24.12.17 230 (ЮЗ) 8-12{12}  10 км  {снег}  9/5 600 м средняя 
[Sc|Ac trans]
+0.5 -3.6 74 -4  1008.8  -1.7  750  302           
12 24.12.17 230 (ЮЗ) 9-12{14}  10 км  {снег}  9/5 630 м средняя 
[Sc|Ac trans]
+1.6 -1.9 78 -3  1003.9  -4.8  746  299           
15 24.12.17 230 (ЮЗ) 10-16{18}  0600 м  ливневой дождь со снегом  10/8 120 м кучево-дожд., средняя 
[Cb calv|Ac und]
+0.6 -0.2 94 -4  999.7  -4  743  299    +2.2  0.7     
18 24.12.17 260 (З) 11-17{21}  5000 м  слаб. ливневой дождь{снег}  10/8 210 м кучево-дожд., средняя 
[Cb calv|Ac und]
+4.1 +3.1 93 997.7  -1.9  741  294           
21 24.12.17 280 (З) 5{17}  8000 м  слаб. ливневой дождь  9/5 870 м кучево-дожд., средняя 
[Cb calv|Ac trans]
+3.3 -0.1 78 +1  1001.5  3.7  744  296           
00 25.12.17 280 (З) 9-14{17}  8000 м  {ливн. осадки}  ясно 
+1.8 -2.4 74 -2  1006.5  4.8  748  300           
03 25.12.17 290 (З) 7-10{14}  8000 м    ясно 
+1.2 -2.7 75 -2  1008.5  1.9  749  301  +0.6       
06 25.12.17 260 (З) 6{14}  10 км    8/3 1000 м средняя 
[Sc|Ac trans]
+1.4 -1.9 79 -2  1009.8  1.2  750  301           
09 25.12.17 250 (З) 7-11{13}  10 км  слаб. дождь  10/8 270 м средняя 
[Sc|Ac und]
+3.9 +2 87 +1  1009.1  -0.6  750  298           
12 25.12.17 260 (З) 10-14{15}  5000 м  слаб. ливневой дождь  10/8 150 м кучево-дожд., средняя 
[Cb calv|Ac und]
+4.7 +3.8 94 +1  1005.8  -3.2  748  296           
15 25.12.17 270 (З) 8-12{16}  2200 м  слаб. ливневой дождь  10/8 120 м кучево-дожд., средняя 
[Cb calv|Ac und]
+5.7 +4.8 94 +3  1007  1.3  748  295    +5.8     
18 25.12.17 320 (СЗ) 5-10{16}  8000 м  {ливн. осадки}  9/6 450 м кучево-дожд., средняя 
[Cb calv|Ac trans]
+3 +1.1 87 +1  1013.4  6.1  753  300           
21 25.12.17 300 (СЗ) 4{12}  8000 м    5/1 300 м средняя 
[Sc|Ac trans]
+2 -0.6 83 1017.9  4.5  756  303           
00 26.12.17 290 (З) 3{12}  8000 м    ясно 
+1 -1.5 83 -1  1021.1  759  305           
03 26.12.17 260 (З) 8000 м    ясно 
-0.1 -1.6 90 -2  1023.5  2.4  761  307  -1.3       
06 26.12.17 230 (ЮЗ) 2900 м  местами туман поземный  8/3 1000 м средняя, верхняя 
[St|Ac trans|Ci fib]
-0.8 -1.8 93 -2  1025  1.4  762  308  -1.5         
09 26.12.17 220 (ЮЗ) 6000 м  дымка  6/4 400 м средняя 
[Sc|Ac trans]
+3.1 +1.4 89 +3  1024.6  -0.2  761  303           
12 26.12.17 230 (ЮЗ) 10 км    9/4 1000 м средняя 
[Sc|Ac trans]
+4.1 +1.7 84 +3  1023.1  -1.3  760  302           
15 26.12.17 230 (ЮЗ) 4300 м  дымка  10/5 1110 м средняя 
[Sc|Ac und]
+4.8 +3.3 90 +4  1022.7  -0.4  760  300    +4.8       
18 26.12.17 240 (ЮЗ) 5000 м  дымка  9/4 1020 м средняя 
[Sc|Ac trans]
+5.7 +4.6 93 +5  1022.4  -0.1  760  299           
21 26.12.17 220 (ЮЗ) 3200 м  дымка{дождь}  10/4 100 м средняя 
[Sc|Ac und]
+6.2 +5.2 93 +5  1021.9  -0.4  760  298           
00 27.12.17 230 (ЮЗ) 3800 м  дымка{дождь}  9/4 450 м средняя 
[Sc|Ac trans]
+6.5 +5.5 93 +5  1021  -0.8  759  298           
03 27.12.17 210 (ЮЗ) 1500 м  в посл. час туман  4/3 200 м средняя 
[St|Ac trans]
+4 +3.2 95 +4  1020.4  -0.6  758  301  +4    0.0     
06 27.12.17 200 (Ю) 5000 м  дымка{туман}  4/0 средняя, верхняя 
[Ac trans|Ci fib]
+4.3 +3.4 94 +3  1020.5  758  300  +2.8         
09 27.12.17 190 (Ю) 10 км    5/0 средняя, верхняя 
[Ac trans|Ci fib]
+9.8 +4.1 68 +9  1018.9  -1.3  757  294           
12 27.12.17 180 (Ю) 10 км    8/0 средняя, верхняя 
[Ac trans|Ci fib]
+10.9 +5 67 +10  1017.6  -1.2  756  292           
15 27.12.17 180 (Ю) 10 км    3/0 средняя 
[Ac trans]
+7 +4.2 82 +6  1017.5  -0.2  756  296    +11  0.0     
18 27.12.17 200 (Ю) 8000 м    ясно 
+6.3 +3.7 83 +4  1016.9  -0.4  756  297           
21 27.12.17 210 (ЮЗ) 8000 м    5/5 800 м 
[Sc]
+6.1 +3.7 85 +5  1017.3  0.3  756  297           
00 28.12.17 180 (Ю) 8000 м    1/0 
[Sc]
+4.5 +2.8 89 +5  1017.3  756  299           
03 28.12.17 тихо ()   3700 м  дымка  3/0 средняя 
[Ac trans]
+2.8 +1.8 93 +3  1017.7  0.2  756  301  +2.6         
06 28.12.17 230 (ЮЗ) 6000 м  дымка  6/3 1000 м средняя 
[Sc|Ac trans]
+3.2 +2.2 93 +4  1018.8  757  301  +2.1         
09 28.12.17 220 (ЮЗ) 6000 м  дымка  6/0 средняя, верхняя 
[Ac trans|Ci fib]
+8.4 +2.8 68 +8  1018.4  -0.1  757  295           
12 28.12.17 110 (В) 10 км    3/0 верхняя 
[Ci fib]
+10.7 +3.8 62 +11  1017.6  -0.6  756  293           
15 28.12.17 090 (В) 5000 м  дым  8/0 средняя, верхняя 
[Ac trans|Ci fib]
+4.5 +2.1 84 +3  1018.6  0.6  757  300    +12.2       
18 28.12.17 090 (В) 6000 м  дымка  8/0 средняя, верхняя 
[Ac trans|Ci fib]
+4.6 +2.8 88 +3  1019  0.3  757  300           
21 28.12.17 100 (В) 6000 м  дымка  8/0 средняя, верхняя 
[Ac trans|Ci fib]
+2.9 +1 87 1019.5  0.5  758  302           
00 29.12.17 080 (В) 0300 м  туман  ?/?  
-0.5 -1.2 95 -4  1019.9  0.3  758  306           
03 29.12.17 100 (В) 0100 м  туман  ?/?  
+0.6 +0.2 97 -2  1019.8  -0.1  758  305  -0.7         
06 29.12.17 090 (В) 6{10}  0100 м  туман  ?/?  
+0.9 +0.9 100 -2  1020.2  0.5  758  304  -0.7         
09 29.12.17 100 (В) 6{10}  1600 м  в посл. час туман  10/10 100 м 
[St]
+2.1 +2.1 100 -1  1020.6  0.3  758  303           
12 29.12.17 090 (В) 7{10}  5000 м  дымка{туман}  10/8 180 м средняя 
[Sc|Ac und]
+3.3 +2.9 97 1019.8  -0.6  758  301           
15 29.12.17 090 (В) 7-11{12}  6000 м  дым  10/8 180 м средняя 
[Sc|Ac und]
+3.5 +2.5 93 1019.5  -0.2  758  301    +3.5       
18 29.12.17 100 (В) 9-12{13}  6000 м  дымка  10/8 180 м средняя 
[Sc|Ac trans]
+3.4 +2.4 93 1018.8  -0.5  757  301           
21 29.12.17 100 (В) 11-14{14}  5000 м  дымка  10/8 180 м средняя 
[Sc|Ac und]
+3.5 +2.4 92 -1  1018.6  -0.1  757  301           
00 30.12.17 100 (В) 11-15{16}  5000 м  дымка  10/8 180 м средняя 
[Sc|Ac und]
+3.3 +2.2 92 -1  1017.7  -0.9  756  301           
03 30.12.17 110 (В) 8-12{15}  5000 м  дымка  10/6 150 м средняя 
[St|Ac und]
+2.8 +1.8 93 -1  1017.5  -0.2  756  301  +2.8         
06 30.12.17 100 (В) 8-12{15}  5000 м  дымка  10/6 150 м средняя 
[St|Ac trans]
+2.5 +1.6 94 -1  1017.6  756  302  +2.5         
09 30.12.17 090 (В) 7{12}  5000 м  дымка  9/6 180 м средняя 
[St|Ac trans]
+2.3 +1.2 92 -1  1017.2  -0.3  756  302           
12 30.12.17 090 (В) 7-10{12}  5000 м  дымка  10/6 150 м средняя 
[St|Ac und]
+2.3 +1.3 93 -1  1015.6  -1.5  755  301           
15 30.12.17 090 (В) 6{10}  3200 м  дымка  10/6 120 м средняя 
[St|Ac und]
+1.8 +1.1 95 -1  1015.4  -0.2  755  302    +2.9       
18 30.12.17 080 (В) 7{11}  1200 м  туман  10/6 100 м средняя 
[St|Ac und]
+1.6 +1.1 96 -2  1014.8  -0.7  754  302           
21 30.12.17 070 (В) 0300 м  туман  10/10 100 м 
[St]
+1.7 +1.2 96 1014.9  0.3  754  302           
00 31.12.17 080 (В) 0100 м  туман{дождь}  ?/?  
+1.3 +0.9 97 -2  1014.9  754  302           
03 31.12.17 080 (В) 0100 м  туман  ?/?  
+0.2 +0 99 -3  1014.9  754  304  +0.2    0.0     
06 31.12.17 100 (В) 4{10}  0100 м  туман  ?/?  
+0.2 +0.2 100 -2  1015.6  0.6  755  304  -0.2         
09 31.12.17 090 (В) 0100 м  туман  ?/?  
+1.5 +1.5 100 -1  1014.9  -0.5  754  302           
12 31.12.17 070 (В) 1600 м  в посл. час туман  10/8 100 м кучево-дожд., средняя 
[Cb calv|Ac und]
+2.9 +2.9 100 +2  1014.2  -0.7  754  300           
15 31.12.17 070 (В) 3100 м  слаб. ливневой дождь  10/6 1000 м кучево-дожд., средняя 
[Cb calv|Ac und]
+3.6 +3.6 100 +2  1013.4  -0.6  753  299    +3.6     
18 31.12.17 040 (СВ) 2000 м  слаб. ливневой дождь  10/6 240 м кучево-дожд., средняя 
[Cb calv|Ac und]
+4.7 +4.7 100 +4  1013.1  -0.2  753  297           
21 31.12.17 110 (В) 0200 м  туман{ливн. осадки}  ?/?  
+4.7 +4.4 98 +4  1012.3  -0.6  752  297           
15 02.01.18 110 (В) 10 км  дымка  10/10 180 м 
[St]
+3.7 +2.7 93 +1  1020.4  1.3  756  300    +4.3       
18 02.01.18 100 (В) 7{10}  10 км    10/10 150 м 
[St]
+2.4 +1.5 94 -1  1020.5  756  302           
Время (UTC), дата Ветер
(°,м/с) 
Видим.   Явления Облачность Т
(°С)
Тd
(°С)
f(%) Тe
(°С)
Pmin
(гПа)
dP
(гПа)
Po
(мм)
O2
(г/м3)
Тmin Tmax R s Состояние
почвы